Location: *
(43.2048°N, 0.1612°E)
Time: 20:20:12
(UTC+00:00)

Cosmos 1536 - Pass Details

Date: 30 September 2023
Orbit: 522 x 546 km, 82.6° (Epoch: 05 December)

Event Time Altitude Azimuth Distance (km) Brightness Sun altitude
Rises 04:41:02 0° 347° (NNW) 2,666 6.3 -14.3°
Reaches altitude 10° 04:43:12 10° 343° (NNW) 1,771 5.3 -13.9°
Maximum altitude 04:47:00 56° 266° (W) 631 2.7 -13.2°
Drops below altitude 10° 04:50:46 10° 187° (S) 1,755 5.2 -12.5°
Sets 04:52:55 0° 183° (S) 2,639 6.2 -12.1°
